{"data":{"norad_id":48213,"intl_designator":"2021-031D","name":"ONEWEB-0180","alt_names":[],"object_type":"PAYLOAD","status":"ACTIVE","operator":null,"country":"UK","launch_date":"2021-04-25","launch_site_code":"VOSTO","launch_vehicle":null,"mission":null,"orbit_class":"UNKNOWN","rcs_meters":null,"size_class":null,"mass_kg":null,"dimensions":null,"purposes":["comms"],"wikipedia_slug":null,"has_3d_model":false,"image_url":null,"decayed_at":null,"tle_current":{"epoch":"2026-05-25T04:01:23.018592Z","epoch_age_seconds":57783,"freshness":"FRESH","line1":"1 48213U 21031D   26145.16762753  .00000229  00000+0  58207-3 0  9997","line2":"2 48213  87.8946 294.2860 0001591 111.6314 248.4985 13.14501085245195","mean_motion":13.14501085,"eccentricity":0.0001591,"inclination_deg":87.8946,"raan_deg":294.286,"arg_perigee_deg":111.6314,"mean_anomaly_deg":248.4985,"bstar":0.00058207,"rev_number":24519,"period_min":109.54726598799,"perigee_km":1204.5903471372,"apogee_km":1207.0035549204,"semimajor_km":7583.9339510288,"source":"CELESTRAK","updated_at":"2026-05-25T13:38:22.396205Z"}}}